Location: Ammerl�gen
(47.2167°N, 9.6000°E)
Time: 11:42:53
(UTC+00:00)

RS-15 - Pass Details

Date: 10 December 2021
Orbit: 1882 x 2162 km, 64.8° (Epoch: 22 January)

Event Time Altitude Azimuth Distance (km) Brightness Sun altitude
Exits shadow 03:31:50 54° 307° (NW) 2,421 8.1 -33.8°
Maximum altitude 03:32:45 55° 322° (NW) 2,408 8.2 -33.7°
Drops below altitude 10° 03:44:45 10° 40° (NE) 4,665 10.4 -31.6°
Sets 03:48:26 0° 45° (NE) 5,686 11.0 -31.0°
